When you browse on this site, cookies collect data to enhance your experience and personalize the content and advertising you see.
Visit our Privacy Policy to learn more. By continuing to use the site, you agree to this use of cookies and data.
  • en Suisse
  • Liste des pays
  • À 7 jours
  • Température de l'eau
  • Carte météo
  • Widgets météo
  • user-avatar
    Se connecter

    Météo par heure à Pokatello

    Ce jour, 29 Mai, Vendredi

    Heure Température Précipitation Vent Pression Humidité
    00:00 +17°C° 0 mm 3 m/s 638 mmHg 56%
    01:00 +17°C° 0 mm 2 m/s 638 mmHg 55%
    02:00 +17°C° 0 mm 2 m/s 638 mmHg 55%
    03:00 +16°C° 0 mm 2 m/s 638 mmHg 55%
    04:00 +16°C° 0 mm 2 m/s 638 mmHg 55%
    05:00 +15°C° 0 mm 2 m/s 638 mmHg 56%
    06:00 +17°C° 0 mm 2 m/s 638 mmHg 55%
    07:00 +19°C° 0 mm 2 m/s 639 mmHg 54%
    08:00 +21°C° 0 mm 2 m/s 640 mmHg 54%
    09:00 +24°C° 0 mm 3 m/s 640 mmHg 49%
    10:00 +27°C° 0 mm 3 m/s 640 mmHg 45%
    11:00 +29°C° 0 mm 3 m/s 641 mmHg 40%
    12:00 +30°C° 0 mm 3 m/s 641 mmHg 36%
    13:00 +32°C° 0 mm 4 m/s 641 mmHg 32%
    14:00 +33°C° 0 mm 4 m/s 641 mmHg 28%
    15:00 +32°C° 0 mm 4 m/s 640 mmHg 30%
    16:00 +32°C° 0 mm 4 m/s 639 mmHg 33%
    17:00 +30°C° 0 mm 4 m/s 639 mmHg 35%
    18:00 +28°C° 0 mm 4 m/s 638 mmHg 39%
    19:00 +25°C° 0 mm 3 m/s 637 mmHg 42%
    20:00 +21°C° 0 mm 3 m/s 637 mmHg 46%
    21:00 +20°C° 0 mm 3 m/s 636 mmHg 47%
    22:00 +20°C° 0 mm 2 m/s 636 mmHg 47%
    23:00 +19°C° 0 mm 2 m/s 636 mmHg 48%

    Demain, 30 Mai, Samedi

    Heure Température Précipitation Vent Pression Humidité
    00:00 +19°C° 0 mm 2 m/s 636 mmHg 47%
    01:00 +19°C° 0 mm 2 m/s 636 mmHg 46%
    02:00 +19°C° 0 mm 2 m/s 636 mmHg 45%
    03:00 +18°C° 0 mm 2 m/s 636 mmHg 49%
    04:00 +17°C° 0 mm 2 m/s 635 mmHg 53%
    05:00 +17°C° 0 mm 2 m/s 635 mmHg 57%
    06:00 +18°C° 0 mm 2 m/s 636 mmHg 56%
    07:00 +20°C° 0 mm 2 m/s 636 mmHg 56%
    08:00 +23°C° 0 mm 2 m/s 637 mmHg 55%
    09:00 +26°C° 0 mm 3 m/s 637 mmHg 47%
    10:00 +28°C° 0 mm 4 m/s 637 mmHg 39%
    11:00 +30°C° 0 mm 5 m/s 638 mmHg 32%
    12:00 +32°C° 0 mm 5 m/s 638 mmHg 30%
    13:00 +32°C° 0 mm 6 m/s 637 mmHg 28%
    14:00 +33°C° 0 mm 6 m/s 637 mmHg 26%
    15:00 +32°C° 0 mm 5 m/s 636 mmHg 29%
    16:00 +32°C° 0 mm 4 m/s 636 mmHg 32%
    17:00 +31°C° 0 mm 3 m/s 635 mmHg 35%
    18:00 +27°C° 0.6 mm 4 m/s 634 mmHg 46%
    19:00 +22°C° 0.6 mm 5 m/s 634 mmHg 56%
    20:00 +17°C° 0.6 mm 6 m/s 633 mmHg 67%
    21:00 +16°C° 0 mm 5 m/s 633 mmHg 68%
    22:00 +16°C° 0 mm 5 m/s 633 mmHg 70%
    23:00 +15°C° 0 mm 4 m/s 633 mmHg 72%

    Après-demain, 31 Mai, Dimanche

    Heure Température Précipitation Vent Pression Humidité
    00:00 +14°C° 0 mm 4 m/s 633 mmHg 68%
    01:00 +13°C° 0 mm 4 m/s 633 mmHg 64%
    02:00 +13°C° 0 mm 4 m/s 633 mmHg 59%
    03:00 +12°C° 0 mm 3 m/s 634 mmHg 58%
    04:00 +11°C° 0 mm 3 m/s 634 mmHg 57%
    05:00 +11°C° 0 mm 3 m/s 634 mmHg 56%
    06:00 +12°C° 0 mm 3 m/s 635 mmHg 55%
    07:00 +13°C° 0 mm 3 m/s 636 mmHg 54%
    08:00 +16°C° 0 mm 3 m/s 636 mmHg 53%
    09:00 +17°C° 0 mm 3 m/s 636 mmHg 50%
    10:00 +18°C° 0 mm 3 m/s 636 mmHg 48%
    11:00 +19°C° 0 mm 3 m/s 637 mmHg 46%
    12:00 +20°C° 0 mm 3 m/s 637 mmHg 43%
    13:00 +22°C° 0 mm 3 m/s 637 mmHg 41%
    14:00 +24°C° 0 mm 3 m/s 637 mmHg 39%
    15:00 +24°C° 0 mm 3 m/s 637 mmHg 39%
    16:00 +24°C° 0 mm 3 m/s 637 mmHg 40%
    17:00 +24°C° 0 mm 3 m/s 637 mmHg 40%
    18:00 +21°C° 0 mm 2 m/s 636 mmHg 46%
    19:00 +19°C° 0 mm 2 m/s 635 mmHg 52%
    20:00 +18°C° 0 mm 1 m/s 635 mmHg 57%
    21:00 +18°C° 0 mm 1 m/s 635 mmHg 58%
    22:00 +16°C° 0 mm 1 m/s 635 mmHg 58%
    23:00 +15°C° 0 mm 0 m/s 635 mmHg 58%

    1 Juin, Lundi

    Heure Température Précipitation Vent Pression Humidité
    00:00 +16°C° 0 mm 1 m/s 635 mmHg 58%
    01:00 +15°C° 0 mm 1 m/s 635 mmHg 58%
    02:00 +15°C° 0 mm 1 m/s 635 mmHg 58%
    03:00 +15°C° 0 mm 2 m/s 635 mmHg 59%
    04:00 +14°C° 0 mm 2 m/s 634 mmHg 60%
    05:00 +13°C° 0 mm 2 m/s 634 mmHg 61%
    06:00 +15°C° 0 mm 2 m/s 635 mmHg 57%
    07:00 +18°C° 0 mm 1 m/s 635 mmHg 53%
    08:00 +20°C° 0 mm 1 m/s 636 mmHg 49%
    09:00 +22°C° 0 mm 3 m/s 637 mmHg 42%
    10:00 +25°C° 0 mm 4 m/s 637 mmHg 36%
    11:00 +27°C° 0 mm 6 m/s 638 mmHg 30%
    12:00 +28°C° 0 mm 6 m/s 638 mmHg 29%
    13:00 +28°C° 0 mm 7 m/s 638 mmHg 27%
    14:00 +28°C° 0 mm 7 m/s 638 mmHg 26%
    15:00 +28°C° 0 mm 6 m/s 638 mmHg 28%
    16:00 +28°C° 0 mm 5 m/s 637 mmHg 31%
    17:00 +28°C° 0 mm 4 m/s 637 mmHg 34%
    18:00 +26°C° 0 mm 3 m/s 637 mmHg 36%
    19:00 +22°C° 0 mm 3 m/s 636 mmHg 37%
    20:00 +20°C° 0 mm 2 m/s 635 mmHg 38%
    21:00 +19°C° 0 mm 2 m/s 635 mmHg 41%
    22:00 +18°C° 0 mm 2 m/s 635 mmHg 44%
    23:00 +16°C° 0 mm 3 m/s 635 mmHg 46%

    2 Juin, Mardi

    Heure Température Précipitation Vent Pression Humidité
    00:00 +16°C° 0 mm 2 m/s 635 mmHg 49%
    01:00 +15°C° 0 mm 2 m/s 635 mmHg 52%
    02:00 +14°C° 0 mm 2 m/s 635 mmHg 55%
    03:00 +14°C° 0 mm 2 m/s 635 mmHg 58%
    04:00 +13°C° 0 mm 1 m/s 635 mmHg 62%
    05:00 +12°C° 0 mm 1 m/s 635 mmHg 65%
    06:00 +14°C° 0 mm 2 m/s 636 mmHg 63%
    07:00 +15°C° 0 mm 2 m/s 637 mmHg 62%
    08:00 +17°C° 0 mm 2 m/s 637 mmHg 61%
    09:00 +19°C° 0 mm 2 m/s 638 mmHg 56%
    10:00 +20°C° 0 mm 2 m/s 638 mmHg 52%
    11:00 +23°C° 0 mm 2 m/s 639 mmHg 48%
    12:00 +24°C° 0 mm 2 m/s 639 mmHg 45%
    13:00 +25°C° 0 mm 2 m/s 639 mmHg 43%
    14:00 +26°C° 0 mm 2 m/s 640 mmHg 40%
    15:00 +26°C° 0 mm 2 m/s 640 mmHg 40%
    16:00 +26°C° 0 mm 2 m/s 640 mmHg 39%
    17:00 +26°C° 0 mm 2 m/s 640 mmHg 39%
    18:00 +24°C° 0 mm 2 m/s 639 mmHg 43%
    19:00 +22°C° 0 mm 1 m/s 638 mmHg 47%
    20:00 +20°C° 0 mm 1 m/s 638 mmHg 51%
    21:00 +19°C° 0 mm 1 m/s 638 mmHg 51%
    22:00 +18°C° 0 mm 2 m/s 638 mmHg 51%
    23:00 +17°C° 0 mm 2 m/s 638 mmHg 50%

    3 Juin, Mercredi

    Heure Température Précipitation Vent Pression Humidité
    00:00 +18°C° 0 mm 1 m/s 638 mmHg 52%
    01:00 +16°C° 0 mm 1 m/s 637 mmHg 53%
    02:00 +16°C° 0 mm 1 m/s 637 mmHg 54%
    03:00 +16°C° 0 mm 1 m/s 637 mmHg 55%
    04:00 +15°C° 0 mm 1 m/s 637 mmHg 57%
    05:00 +14°C° 0 mm 0 m/s 637 mmHg 58%
    06:00 +16°C° 0 mm 0 m/s 637 mmHg 57%
    07:00 +19°C° 0 mm 1 m/s 638 mmHg 55%
    08:00 +21°C° 0 mm 1 m/s 638 mmHg 53%
    09:00 +22°C° 0 mm 1 m/s 639 mmHg 50%
    10:00 +24°C° 0 mm 1 m/s 639 mmHg 46%
    11:00 +26°C° 0 mm 1 m/s 639 mmHg 42%
    12:00 +27°C° 0 mm 1 m/s 639 mmHg 39%
    13:00 +27°C° 0 mm 1 m/s 639 mmHg 36%
    14:00 +28°C° 0 mm 1 m/s 639 mmHg 33%
    15:00 +28°C° 0 mm 1 m/s 639 mmHg 33%
    16:00 +28°C° 0 mm 1 m/s 639 mmHg 33%
    17:00 +28°C° 0 mm 1 m/s 639 mmHg 34%
    18:00 +26°C° 0.1 mm 2 m/s 638 mmHg 41%
    19:00 +23°C° 0.1 mm 2 m/s 637 mmHg 49%
    20:00 +20°C° 0.1 mm 2 m/s 637 mmHg 56%
    21:00 +18°C° 1 mm 2 m/s 636 mmHg 66%
    22:00 +16°C° 1 mm 2 m/s 636 mmHg 76%
    23:00 +15°C° 1 mm 2 m/s 636 mmHg 86%
    Voir plus